SKW613 KDTW-KATW

Flight info

Callsign SKW613
Flight time 0h 53m
Altitude 36000
Route MIGGY3 SLLAP GRB
Aircraft CRJ7/M-SDFGIRWY/S

Departure

Time 2026-05-06 23:18
Airport Detroit Metropolitan Wayne County Airport (KDTW)

Arrival

Time 2026-05-07 00:12
Airport Appleton International Airport (KATW)
Time Latitude Longitude Altitude Speed Heading
2026-05-06 23:03 42.20989 -83.36071 648 ft 0 kts 304°
2026-05-06 23:06 42.20977 -83.36055 649 ft 3 kts 347°
2026-05-06 23:06 42.20965 -83.36057 648 ft 0 kts 35°
2026-05-06 23:09 42.20967 -83.36055 648 ft 1 kts 35°
2026-05-06 23:09 42.20976 -83.36047 649 ft 2 kts 35°
2026-05-06 23:10 42.20991 -83.36033 649 ft 3 kts 35°
2026-05-06 23:10 42.21012 -83.36012 649 ft 4 kts 35°
2026-05-06 23:10 42.21040 -83.35986 649 ft 5 kts 35°
2026-05-06 23:10 42.21062 -83.35965 649 ft 6 kts 35°
2026-05-06 23:11 42.21104 -83.35924 649 ft 7 kts 35°
2026-05-06 23:11 42.21118 -83.35911 648 ft 2 kts 35°
2026-05-06 23:11 42.21134 -83.35896 648 ft 3 kts 35°
2026-05-06 23:11 42.21157 -83.35874 648 ft 5 kts 35°
2026-05-06 23:12 42.21164 -83.35868 648 ft 1 kts 35°
2026-05-06 23:12 42.21172 -83.35861 648 ft 2 kts 35°
2026-05-06 23:12 42.21185 -83.35848 649 ft 3 kts 35°
2026-05-06 23:12 42.21206 -83.35828 648 ft 4 kts 35°
2026-05-06 23:13 42.21233 -83.35803 648 ft 5 kts 31°
2026-05-06 23:13 42.21268 -83.35775 648 ft 6 kts 31°
2026-05-06 23:13 42.21309 -83.35741 650 ft 7 kts 31°
2026-05-06 23:13 42.21357 -83.35706 649 ft 8 kts 27°
2026-05-06 23:14 42.21412 -83.35668 648 ft 9 kts 27°
2026-05-06 23:14 42.21474 -83.35626 649 ft 10 kts 27°
2026-05-06 23:14 42.21531 -83.35557 648 ft 12 kts 51°
2026-05-06 23:14 42.21555 -83.35460 647 ft 11 kts 94°
2026-05-06 23:15 42.21550 -83.35353 649 ft 12 kts 92°
2026-05-06 23:15 42.21553 -83.35199 648 ft 21 kts 88°
2026-05-06 23:15 42.21516 -83.35068 650 ft 14 kts 171°
2026-05-06 23:15 42.21418 -83.35010 650 ft 18 kts 150°
2026-05-06 23:16 42.21293 -83.34937 647 ft 22 kts 184°
2026-05-06 23:16 42.21146 -83.35023 647 ft 25 kts 207°
2026-05-06 23:16 42.20984 -83.35141 650 ft 28 kts 208°
2026-05-06 23:16 42.20854 -83.35198 647 ft 0 kts 161°
2026-05-06 23:17 42.20843 -83.35190 651 ft 10 kts 145°
2026-05-06 23:17 42.20852 -83.35074 647 ft 16 kts 26°
2026-05-06 23:17 42.21117 -83.34877 645 ft 81 kts 28°
2026-05-06 23:17 42.21823 -83.34364 649 ft 145 kts 28°
2026-05-06 23:18 42.22825 -83.33666 955 ft 170 kts 23°
2026-05-06 23:18 42.23913 -83.32994 1694 ft 181 kts 26°
2026-05-06 23:18 42.25074 -83.32131 2378 ft 199 kts 22°
2026-05-06 23:18 42.26462 -83.31863 3173 ft 212 kts 356°
2026-05-06 23:19 42.28004 -83.31879 3963 ft 231 kts 356°
2026-05-06 23:19 42.29660 -83.31918 4801 ft 245 kts 355°
2026-05-06 23:19 42.31368 -83.32113 5791 ft 247 kts 341°
2026-05-06 23:19 42.32970 -83.32972 6827 ft 250 kts 336°
2026-05-06 23:20 42.34657 -83.33605 7715 ft 255 kts 348°
2026-05-06 23:20 42.36440 -83.33898 8647 ft 260 kts 352°
2026-05-06 23:20 42.38262 -83.34072 9572 ft 265 kts 353°
2026-05-06 23:20 42.40122 -83.34206 10423 ft 271 kts 352°
2026-05-06 23:21 42.42035 -83.34323 11224 ft 279 kts 352°
2026-05-06 23:21 42.43994 -83.34450 12065 ft 285 kts 349°
2026-05-06 23:21 42.45993 -83.34617 12892 ft 291 kts 348°
2026-05-06 23:21 42.48029 -83.34839 13636 ft 293 kts 342°
2026-05-06 23:22 42.49867 -83.35805 14336 ft 280 kts 321°
2026-05-06 23:22 42.51397 -83.37370 15030 ft 272 kts 305°
2026-05-06 23:22 42.52611 -83.39323 15749 ft 271 kts 299°
2026-05-06 23:22 42.53747 -83.41369 16440 ft 272 kts 297°
2026-05-06 23:23 42.54880 -83.43445 17193 ft 274 kts 297°
2026-05-06 23:23 42.56019 -83.45540 17841 ft 277 kts 297°
2026-05-06 23:23 42.57195 -83.47627 18494 ft 280 kts 297°
2026-05-06 23:23 42.58389 -83.49726 19140 ft 281 kts 297°
2026-05-06 23:24 42.59592 -83.51821 19728 ft 282 kts 297°
2026-05-06 23:24 42.60803 -83.53932 20319 ft 285 kts 297°
2026-05-06 23:24 42.62050 -83.56127 20417 ft 303 kts 297°
2026-05-06 23:24 42.63356 -83.58484 20489 ft 321 kts 297°
2026-05-06 23:25 42.64694 -83.60924 20860 ft 329 kts 297°
2026-05-06 23:25 42.66077 -83.63414 21277 ft 331 kts 298°
2026-05-06 23:25 42.67472 -83.65918 21730 ft 333 kts 298°
2026-05-06 23:25 42.68878 -83.68435 22162 ft 335 kts 298°
2026-05-06 23:26 42.70284 -83.70956 22616 ft 336 kts 297°
2026-05-06 23:26 42.71696 -83.73491 22989 ft 338 kts 297°
2026-05-06 23:26 42.73121 -83.76038 23415 ft 338 kts 297°
2026-05-06 23:26 42.74543 -83.78592 23819 ft 339 kts 297°
2026-05-06 23:27 42.75971 -83.81161 24204 ft 341 kts 297°
2026-05-06 23:27 42.77404 -83.83739 24559 ft 342 kts 297°
2026-05-06 23:27 42.78908 -83.86279 24916 ft 349 kts 302°
2026-05-06 23:27 42.80632 -83.88638 25254 ft 355 kts 306°
2026-05-06 23:28 42.82450 -83.90924 25631 ft 356 kts 306°
2026-05-06 23:28 42.83661 -83.92439 25854 ft 357 kts 306°
2026-05-06 23:28 42.85474 -83.94743 26181 ft 357 kts 305°
2026-05-06 23:28 42.87264 -83.97095 26472 ft 358 kts 304°
2026-05-06 23:29 42.89060 -83.99452 26749 ft 359 kts 304°
2026-05-06 23:29 42.90855 -84.01819 27059 ft 360 kts 304°
2026-05-06 23:29 42.92648 -84.04199 27358 ft 361 kts 304°
2026-05-06 23:29 42.94447 -84.06583 27614 ft 361 kts 304°
2026-05-06 23:30 42.96252 -84.08975 27862 ft 362 kts 303°
2026-05-06 23:30 42.98060 -84.11380 28104 ft 363 kts 304°
2026-05-06 23:30 42.99879 -84.13791 28332 ft 365 kts 304°
2026-05-06 23:30 43.01681 -84.16218 28602 ft 364 kts 303°
2026-05-06 23:31 43.03492 -84.18652 28785 ft 367 kts 303°
2026-05-06 23:31 43.05324 -84.21096 28999 ft 368 kts 303°
2026-05-06 23:31 43.07155 -84.23552 29201 ft 369 kts 303°
2026-05-06 23:31 43.08994 -84.26011 29403 ft 371 kts 303°
2026-05-06 23:32 43.10849 -84.28479 29598 ft 372 kts 304°
2026-05-06 23:32 43.12678 -84.30926 29801 ft 373 kts 303°
2026-05-06 23:32 43.14535 -84.33416 30023 ft 374 kts 303°
2026-05-06 23:32 43.16403 -84.35918 30164 ft 376 kts 303°
2026-05-06 23:33 43.18273 -84.38428 30331 ft 377 kts 304°
2026-05-06 23:33 43.20148 -84.40950 30497 ft 378 kts 304°
2026-05-06 23:33 43.22036 -84.43477 30659 ft 379 kts 304°
2026-05-06 23:33 43.23823 -84.46094 30795 ft 372 kts 297°
2026-05-06 23:34 43.25342 -84.48937 30924 ft 368 kts 294°
2026-05-06 23:34 43.26700 -84.51898 31089 ft 365 kts 291°
2026-05-06 23:34 43.27983 -84.54903 31243 ft 365 kts 291°
2026-05-06 23:34 43.29265 -84.57924 31407 ft 367 kts 291°
2026-05-06 23:35 43.30552 -84.60958 31555 ft 368 kts 291°
2026-05-06 23:35 43.33214 -84.67028 31800 ft 372 kts 292°
2026-05-06 23:35 43.34553 -84.70062 31978 ft 372 kts 291°
2026-05-06 23:36 43.35892 -84.73097 32136 ft 371 kts 292°
2026-05-06 23:36 43.37230 -84.76125 32331 ft 370 kts 291°
2026-05-06 23:36 43.38564 -84.79154 32500 ft 370 kts 291°
2026-05-06 23:36 43.39895 -84.82182 32647 ft 371 kts 291°
2026-05-06 23:37 43.41229 -84.85217 32795 ft 371 kts 291°
2026-05-06 23:37 43.42562 -84.88257 32954 ft 371 kts 291°
2026-05-06 23:37 43.43894 -84.91294 33111 ft 371 kts 291°
2026-05-06 23:37 43.45193 -84.94338 33286 ft 368 kts 290°
2026-05-06 23:38 43.46414 -84.97423 33458 ft 366 kts 288°
2026-05-06 23:38 43.47537 -85.00506 33583 ft 364 kts 287°
2026-05-06 23:38 43.48649 -85.03640 33725 ft 364 kts 287°
2026-05-06 23:38 43.49765 -85.06770 33852 ft 364 kts 287°
2026-05-06 23:39 43.50885 -85.09902 33969 ft 365 kts 288°
2026-05-06 23:39 43.52008 -85.13036 34075 ft 365 kts 287°
2026-05-06 23:39 43.53131 -85.16179 34173 ft 366 kts 287°
2026-05-06 23:40 43.55373 -85.22477 34367 ft 366 kts 287°
2026-05-06 23:40 43.56493 -85.25630 34518 ft 365 kts 287°
2026-05-06 23:40 43.57609 -85.28771 34665 ft 364 kts 288°
2026-05-06 23:40 43.58726 -85.31902 34809 ft 364 kts 288°
2026-05-06 23:41 43.59839 -85.35037 34961 ft 363 kts 288°
2026-05-06 23:41 43.60946 -85.38167 35110 ft 364 kts 287°
2026-05-06 23:41 43.62056 -85.41301 35267 ft 362 kts 287°
2026-05-06 23:41 43.63160 -85.44419 35415 ft 360 kts 287°
2026-05-06 23:42 43.64254 -85.47529 35562 ft 360 kts 288°
2026-05-06 23:42 43.65352 -85.50634 35711 ft 359 kts 288°
2026-05-06 23:42 43.66431 -85.53691 35840 ft 359 kts 288°
2026-05-06 23:43 43.68613 -85.59912 35936 ft 362 kts 288°
2026-05-06 23:43 43.70830 -85.66232 35959 ft 368 kts 288°
2026-05-06 23:44 43.73080 -85.72653 35963 ft 373 kts 288°
2026-05-06 23:44 43.75353 -85.79178 35969 ft 379 kts 288°
2026-05-06 23:45 43.77660 -85.85791 35976 ft 384 kts 288°
2026-05-06 23:45 43.79989 -85.92490 35977 ft 388 kts 288°
2026-05-06 23:46 43.82335 -85.99269 35977 ft 392 kts 288°
2026-05-06 23:46 43.84706 -86.06117 35985 ft 396 kts 288°
2026-05-06 23:47 43.87103 -86.13049 35983 ft 401 kts 288°
2026-05-06 23:47 43.89517 -86.20068 35988 ft 404 kts 288°
2026-05-06 23:48 43.91924 -86.27074 35987 ft 405 kts 288°
2026-05-06 23:48 43.94347 -86.34154 35979 ft 408 kts 288°
2026-05-06 23:49 43.96780 -86.41265 35907 ft 409 kts 288°
2026-05-06 23:49 43.98007 -86.44860 35399 ft 413 kts 288°
2026-05-06 23:49 43.99228 -86.48455 34910 ft 410 kts 288°
2026-05-06 23:49 44.00444 -86.52027 34415 ft 408 kts 288°
2026-05-06 23:50 44.01655 -86.55585 33918 ft 407 kts 288°
2026-05-06 23:50 44.04062 -86.62684 32924 ft 405 kts 288°
2026-05-06 23:50 44.05257 -86.66225 32427 ft 403 kts 288°
2026-05-06 23:51 44.06449 -86.69750 31925 ft 402 kts 288°
2026-05-06 23:51 44.07640 -86.73267 31439 ft 401 kts 288°
2026-05-06 23:51 44.08820 -86.76764 30933 ft 398 kts 288°
2026-05-06 23:51 44.09996 -86.80255 30442 ft 398 kts 288°
2026-05-06 23:52 44.11163 -86.83731 29946 ft 396 kts 288°
2026-05-06 23:52 44.12329 -86.87199 29448 ft 394 kts 288°
2026-05-06 23:52 44.13486 -86.90652 28960 ft 393 kts 287°
2026-05-06 23:52 44.14638 -86.94098 28453 ft 392 kts 288°
2026-05-06 23:53 44.15787 -86.97537 27956 ft 391 kts 288°
2026-05-06 23:53 44.16935 -87.00971 27454 ft 391 kts 288°
2026-05-06 23:53 44.18079 -87.04407 26961 ft 391 kts 288°
2026-05-06 23:53 44.19217 -87.07842 26459 ft 391 kts 288°
2026-05-06 23:54 44.20359 -87.11276 25961 ft 391 kts 288°
2026-05-06 23:54 44.21504 -87.14718 25461 ft 392 kts 288°
2026-05-06 23:54 44.22637 -87.18131 24962 ft 383 kts 288°
2026-05-06 23:54 44.23745 -87.21471 24459 ft 376 kts 288°
2026-05-06 23:55 44.24816 -87.24723 23956 ft 371 kts 287°
2026-05-06 23:55 44.25890 -87.27976 23463 ft 366 kts 288°
2026-05-06 23:55 44.26951 -87.31184 22949 ft 362 kts 288°
2026-05-06 23:55 44.28000 -87.34364 22445 ft 358 kts 288°
2026-05-06 23:56 44.29035 -87.37512 21942 ft 355 kts 288°
2026-05-06 23:56 44.30063 -87.40648 21433 ft 355 kts 288°
2026-05-06 23:56 44.31085 -87.43764 20934 ft 352 kts 288°
2026-05-06 23:56 44.32098 -87.46865 20425 ft 350 kts 288°
2026-05-06 23:57 44.33106 -87.49955 19924 ft 349 kts 289°
2026-05-06 23:57 44.34112 -87.53034 19421 ft 348 kts 289°
2026-05-06 23:57 44.35118 -87.56107 18917 ft 347 kts 289°
2026-05-06 23:57 44.36122 -87.59179 18420 ft 347 kts 289°
2026-05-06 23:58 44.37120 -87.62250 17921 ft 347 kts 289°
2026-05-06 23:58 44.38104 -87.65284 17426 ft 347 kts 289°
2026-05-06 23:58 44.39118 -87.68400 16918 ft 348 kts 290°
2026-05-06 23:58 44.40104 -87.71433 16426 ft 347 kts 290°
2026-05-06 23:59 44.41100 -87.74511 15921 ft 347 kts 290°
2026-05-06 23:59 44.42096 -87.77585 15429 ft 346 kts 290°
2026-05-06 23:59 44.43089 -87.80650 14937 ft 346 kts 290°
2026-05-06 23:59 44.44073 -87.83720 14434 ft 346 kts 290°
2026-05-07 00:00 44.45047 -87.86804 13937 ft 348 kts 290°
2026-05-07 00:00 44.46018 -87.89894 13437 ft 346 kts 290°
2026-05-07 00:00 44.46977 -87.92963 12951 ft 341 kts 290°
2026-05-07 00:00 44.47630 -87.95016 12609 ft 341 kts 292°
2026-05-07 00:01 44.48920 -87.99014 11947 ft 339 kts 291°
2026-05-07 00:01 44.49883 -88.02021 11444 ft 338 kts 292°
2026-05-07 00:01 44.50845 -88.05020 10923 ft 336 kts 292°
2026-05-07 00:01 44.51791 -88.07940 10373 ft 320 kts 292°
2026-05-07 00:02 44.52680 -88.10661 10174 ft 293 kts 292°
2026-05-07 00:02 44.53352 -88.13204 10102 ft 266 kts 276°
2026-05-07 00:02 44.53077 -88.15670 9725 ft 257 kts 245°
2026-05-07 00:02 44.52166 -88.17785 9289 ft 251 kts 239°
2026-05-07 00:03 44.51169 -88.19820 8860 ft 255 kts 237°
2026-05-07 00:03 44.50107 -88.21823 8431 ft 257 kts 235°
2026-05-07 00:03 44.48967 -88.23780 8007 ft 262 kts 228°
2026-05-07 00:03 44.47373 -88.25067 7597 ft 270 kts 203°
2026-05-07 00:04 44.45576 -88.25864 7177 ft 273 kts 195°
2026-05-07 00:04 44.43706 -88.26197 6765 ft 275 kts 188°
2026-05-07 00:04 44.41772 -88.26377 6338 ft 275 kts 186°
2026-05-07 00:04 44.39863 -88.26494 5917 ft 274 kts 185°
2026-05-07 00:05 44.37979 -88.26567 5500 ft 274 kts 184°
2026-05-07 00:05 44.36047 -88.26613 5073 ft 273 kts 183°
2026-05-07 00:05 44.34181 -88.26635 4656 ft 271 kts 182°
2026-05-07 00:05 44.32295 -88.26667 4231 ft 269 kts 182°
2026-05-07 00:06 44.30433 -88.26726 3806 ft 266 kts 183°
2026-05-07 00:06 44.28605 -88.26809 3379 ft 262 kts 183°
2026-05-07 00:06 44.26792 -88.26899 2980 ft 258 kts 182°
2026-05-07 00:06 44.25033 -88.26971 2768 ft 246 kts 183°
2026-05-07 00:07 44.23365 -88.27079 2677 ft 234 kts 184°
2026-05-07 00:07 44.21758 -88.27181 2630 ft 229 kts 184°
2026-05-07 00:07 44.20190 -88.27331 2604 ft 222 kts 193°
2026-05-07 00:07 44.18912 -88.28367 2601 ft 211 kts 228°
2026-05-07 00:08 44.18213 -88.30089 2601 ft 202 kts 261°
2026-05-07 00:08 44.18387 -88.31976 2617 ft 198 kts 298°
2026-05-07 00:08 44.19260 -88.33359 2628 ft 184 kts 317°
2026-05-07 00:08 44.20210 -88.34524 2623 ft 181 kts 319°
2026-05-07 00:09 44.21166 -88.35664 2620 ft 181 kts 319°
2026-05-07 00:09 44.22132 -88.36794 2619 ft 181 kts 319°
2026-05-07 00:09 44.23107 -88.37929 2618 ft 182 kts 319°
2026-05-07 00:09 44.23793 -88.39352 2610 ft 179 kts 282°
2026-05-07 00:10 44.23875 -88.41062 2614 ft 177 kts 258°
2026-05-07 00:10 44.23505 -88.42703 2591 ft 180 kts 253°
2026-05-07 00:10 44.23093 -88.44542 1830 ft 212 kts 262°
2026-05-07 00:10 44.23607 -88.46215 1740 ft 192 kts 308°
2026-05-07 00:11 44.24212 -88.47709 1501 ft 161 kts 298°
2026-05-07 00:11 44.24691 -88.48936 1216 ft 132 kts 297°
2026-05-07 00:11 44.25043 -88.50006 1053 ft 113 kts 295°
2026-05-07 00:11 44.25377 -88.50908 890 ft 107 kts 297°
2026-05-07 00:12 44.25631 -88.51603 885 ft 43 kts 297°
2026-05-07 00:12 44.25736 -88.51835 884 ft 16 kts 333°
2026-05-07 00:12 44.25824 -88.51791 886 ft 14 kts 52°
2026-05-07 00:12 44.25860 -88.51661 884 ft 16 kts 71°
2026-05-07 00:13 44.25892 -88.51528 880 ft 14 kts 71°
2026-05-07 00:13 44.25932 -88.51390 877 ft 17 kts 53°
2026-05-07 00:13 44.25971 -88.51325 876 ft 6 kts 51°
2026-05-07 00:13 44.25978 -88.51317 876 ft 0 kts 34°